Station History

Weather Underground - logo

Station Historical Data
Daily Summary for August 9, 2017 Units:  English    Metric   Both
« Previous Day
Next Day »
Daily Weekly Monthly Yearly Custom
  High: Low: Average:
Temperature: TemperatureF °F 65.3 °F 82.4 °F
Dew Point: DewpointF °F 53.9 °F 61.9 °F
Humidity: Humidity % 23 % 54 %
Wind Speed: WindSpeedMPH mph 0.0 mph 1.4 mph
Wind Gust: WindSpeedGustMPH mph - -
Wind:- - WSW
Pressure: PressureIn in 29.75 in -
Precipitation: 0.00 in    
Historical Graphs
 
 
Tabular Data for August 9, 2017
Time Temperature Dew Point Pressure Wind Wind Speed Wind Gust Humidity Rainfall Rate (Hourly)
TemperatureF °F DewpointF °F PressureIn in Calm     Humidity % HourlyPrecipIn in
00:01 75.0 °F 64.1 °F 29.80 in Calm     69 % 0.00 in
00:06 75.0 °F 63.7 °F 29.80 in Calm     68 % 0.00 in
00:11 75.1 °F 63.8 °F 29.80 in Calm     68 % 0.00 in
00:16 75.1 °F 63.4 °F 29.80 in Calm     67 % 0.00 in
00:21 75.1 °F 64.6 °F 29.80 in Calm     70 % 0.00 in
00:26 75.0 °F 64.5 °F 29.80 in Calm     70 % 0.00 in
00:32 75.2 °F 65.1 °F 29.80 in Calm     71 % 0.00 in
00:37 74.9 °F 64.5 °F 29.80 in Calm     70 % 0.00 in
00:42 74.6 °F 64.6 °F 29.80 in Calm   0.1 mph 71 % 0.00 in
00:47 74.1 °F 64.1 °F 29.80 in Calm     71 % 0.00 in
00:52 73.9 °F 63.9 °F 29.80 in Calm     71 % 0.00 in
00:57 73.7 °F 64.1 °F 29.80 in Calm     72 % 0.00 in
01:02 73.8 °F 63.8 °F 29.80 in Calm     71 % 0.00 in
01:07 73.9 °F 63.5 °F 29.80 in Calm     70 % 0.00 in
01:12 74.0 °F 63.2 °F 29.80 in Calm     69 % 0.00 in
01:17 73.8 °F 63.0 °F 29.80 in WNW 1.2 mph 1.2 mph 69 % 0.00 in
01:22 74.1 °F 62.0 °F 29.80 in WNW 1.2 mph 1.2 mph 66 % 0.00 in
01:27 74.4 °F 62.3 °F 29.80 in NW 1.2 mph 1.2 mph 66 % 0.00 in
01:32 74.6 °F 62.1 °F 29.80 in Calm     65 % 0.00 in
01:37 74.6 °F 62.1 °F 29.80 in Calm     65 % 0.00 in
01:42 74.6 °F 62.1 °F 29.80 in Calm     65 % 0.00 in
01:47 74.5 °F 62.4 °F 29.80 in Calm     66 % 0.00 in
01:52 74.3 °F 62.2 °F 29.80 in Calm     66 % 0.00 in
01:57 74.1 °F 62.4 °F 29.80 in Calm     67 % 0.00 in
02:02 73.8 °F 62.6 °F 29.80 in Calm     68 % 0.00 in
02:07 73.5 °F 62.3 °F 29.80 in Calm     68 % 0.00 in
02:12 73.4 °F 62.6 °F 29.80 in Calm     69 % 0.00 in
02:17 73.0 °F 62.2 °F 29.80 in Calm     69 % 0.00 in
02:22 72.6 °F 63.1 °F 29.80 in Calm     72 % 0.00 in
02:27 72.1 °F 63.0 °F 29.80 in Calm     73 % 0.00 in
02:32 71.7 °F 63.0 °F 29.80 in Calm     74 % 0.00 in
02:37 71.4 °F 62.7 °F 29.80 in Calm     74 % 0.00 in
02:42 71.1 °F 62.4 °F 29.80 in Calm     74 % 0.00 in
02:47 70.9 °F 63.3 °F 29.80 in Calm     77 % 0.00 in
02:52 70.9 °F 63.3 °F 29.80 in Calm     77 % 0.00 in
02:57 70.8 °F 62.9 °F 29.80 in Calm     76 % 0.00 in
03:02 70.6 °F 62.7 °F 29.80 in Calm     76 % 0.00 in
03:07 70.4 °F 62.5 °F 29.79 in Calm     76 % 0.00 in
03:12 70.3 °F 62.7 °F 29.79 in Calm     77 % 0.00 in
03:17 70.1 °F 62.9 °F 29.79 in Calm     78 % 0.00 in
03:22 69.9 °F 62.7 °F 29.79 in Calm     78 % 0.00 in
03:27 69.7 °F 62.2 °F 29.79 in Calm     77 % 0.00 in
03:32 69.6 °F 62.4 °F 29.79 in Calm     78 % 0.00 in
03:37 69.3 °F 62.5 °F 29.79 in Calm     79 % 0.00 in
03:42 69.2 °F 62.4 °F 29.79 in Calm     79 % 0.00 in
03:47 69.1 °F 62.7 °F 29.79 in Calm     80 % 0.00 in
03:52 69.0 °F 62.6 °F 29.79 in Calm     80 % 0.00 in
03:57 68.8 °F 62.4 °F 29.79 in Calm     80 % 0.00 in
04:02 68.7 °F 62.3 °F 29.79 in Calm     80 % 0.00 in
04:07 68.3 °F 62.2 °F 29.79 in Calm     81 % 0.00 in
04:12 68.0 °F 61.9 °F 29.80 in Calm     81 % 0.00 in
04:17 67.8 °F 61.8 °F 29.80 in Calm     81 % 0.00 in
04:23 67.5 °F 61.5 °F 29.80 in Calm     81 % 0.00 in
04:28 67.3 °F 61.3 °F 29.79 in Calm     81 % 0.00 in
04:33 67.1 °F 61.4 °F 29.80 in Calm     82 % 0.00 in
04:38 66.9 °F 61.6 °F 29.80 in Calm     83 % 0.00 in
04:43 66.7 °F 61.4 °F 29.80 in NW 1.2 mph 1.2 mph 83 % 0.00 in
04:48 66.5 °F 61.5 °F 29.80 in Calm     84 % 0.00 in
04:53 66.3 °F 61.3 °F 29.80 in Calm     84 % 0.00 in
04:58 66.1 °F 61.1 °F 29.80 in Calm     84 % 0.00 in
05:03 66.0 °F 61.4 °F 29.80 in Calm     85 % 0.00 in
05:08 65.9 °F 61.3 °F 29.80 in Calm     85 % 0.00 in
05:13 65.7 °F 61.4 °F 29.80 in Calm     86 % 0.00 in
05:18 65.5 °F 61.2 °F 29.80 in Calm     86 % 0.00 in
05:23 65.4 °F 61.4 °F 29.80 in Calm     87 % 0.00 in
05:28 65.4 °F 61.4 °F 29.81 in Calm     87 % 0.00 in
05:33 65.4 °F 61.8 °F 29.81 in Calm     88 % 0.00 in
05:38 65.3 °F 61.7 °F 29.81 in Calm     88 % 0.00 in
05:43 65.3 °F 61.7 °F 29.81 in Calm     88 % 0.00 in
05:48 65.3 °F 61.7 °F 29.82 in Calm     88 % 0.00 in
05:53 65.4 °F 61.8 °F 29.82 in Calm     88 % 0.00 in
05:58 65.5 °F 61.9 °F 29.82 in Calm     88 % 0.00 in
06:03 65.5 °F 61.5 °F 29.82 in Calm     87 % 0.00 in
06:08 65.6 °F 61.6 °F 29.82 in NNW 1.2 mph 1.2 mph 87 % 0.00 in
06:13 65.7 °F 61.7 °F 29.83 in Calm     87 % 0.00 in
06:18 65.8 °F 61.5 °F 29.83 in NW 1.2 mph   86 % 0.00 in
06:23 65.8 °F 61.5 °F 29.83 in NNW 1.2 mph 1.2 mph 86 % 0.00 in
06:26 65.8 °F 61.5 °F 29.83 in NNW 1.2 mph   86 % 0.00 in
06:31 65.8 °F 61.2 °F 29.83 in NNW 1.2 mph 1.2 mph 85 % 0.00 in
06:36 65.9 °F 61.6 °F 29.83 in NNW 1.2 mph   86 % 0.00 in
06:41 66.1 °F 61.5 °F 29.83 in NNW 1.2 mph   85 % 0.00 in
06:46 66.3 °F 61.7 °F 29.84 in NNW 1.2 mph 1.2 mph 85 % 0.00 in
06:51 66.5 °F 61.8 °F 29.84 in Calm     85 % 0.00 in
06:56 66.7 °F 62.0 °F 29.84 in North 2.3 mph 2.3 mph 85 % 0.00 in
07:01 66.8 °F 62.1 °F 29.84 in North 1.2 mph 1.2 mph 85 % 0.00 in
07:06 66.9 °F 61.9 °F 29.84 in North 1.2 mph 1.2 mph 84 % 0.00 in
07:11 67.2 °F 62.2 °F 29.84 in North 1.2 mph 1.2 mph 84 % 0.00 in
07:16 67.5 °F 62.2 °F 29.85 in North 3.5 mph 3.5 mph 83 % 0.00 in
07:21 67.9 °F 62.5 °F 29.85 in North 2.3 mph 2.3 mph 83 % 0.00 in
07:26 68.8 °F 62.7 °F 29.85 in ENE 2.0 mph 2.0 mph 81 % 0.00 in
07:31 69.8 °F 63.0 °F 29.85 in Calm   0.1 mph 79 % 0.00 in
07:36 70.7 °F 63.1 °F 29.85 in Calm     77 % 0.00 in
07:41 71.4 °F 63.1 °F 29.85 in South 3.0 mph 3.0 mph 75 % 0.00 in
07:46 71.8 °F 63.1 °F 29.85 in East 2.3 mph 2.3 mph 74 % 0.00 in
07:51 72.3 °F 62.8 °F 29.85 in ESE 2.0 mph 2.0 mph 72 % 0.00 in
07:56 72.8 °F 62.8 °F 29.85 in SSE 1.0 mph 1.0 mph 71 % 0.00 in
08:01 73.3 °F 62.5 °F 29.85 in SSE 2.3 mph 2.3 mph 69 % 0.00 in
08:06 74.0 °F 62.8 °F 29.85 in SE 1.2 mph 1.2 mph 68 % 0.00 in
08:11 74.5 °F 62.8 °F 29.85 in SE 1.2 mph   67 % 0.00 in
08:16 75.0 °F 62.0 °F 29.85 in SE 2.3 mph 2.3 mph 64 % 0.00 in
08:21 75.5 °F 62.5 °F 29.85 in East 2.3 mph 2.3 mph 64 % 0.00 in
08:26 76.0 °F 62.9 °F 29.85 in East 1.2 mph 1.2 mph 64 % 0.00 in
08:31 76.5 °F 63.0 °F 29.85 in East 1.2 mph 1.2 mph 63 % 0.00 in
08:36 77.1 °F 63.1 °F 29.85 in East 1.2 mph 1.2 mph 62 % 0.00 in
08:41 77.8 °F 63.3 °F 29.85 in SE 2.3 mph 2.3 mph 61 % 0.00 in
08:46 78.1 °F 63.1 °F 29.85 in Calm   0.6 mph 60 % 0.00 in
08:51 78.2 °F 62.7 °F 29.85 in ESE 2.3 mph 2.3 mph 59 % 0.00 in
08:56 78.7 °F 63.2 °F 29.85 in ESE 2.3 mph 2.3 mph 59 % 0.00 in
09:01 79.5 °F 63.4 °F 29.85 in SSE 2.3 mph 2.3 mph 58 % 0.00 in
09:07 80.0 °F 63.9 °F 29.85 in East 2.3 mph 2.3 mph 58 % 0.00 in
09:12 80.2 °F 64.6 °F 29.85 in Calm     59 % 0.00 in
09:17 81.0 °F 64.8 °F 29.85 in SSW 1.0 mph 1.0 mph 58 % 0.00 in
09:22 81.3 °F 64.1 °F 29.85 in ENE 2.3 mph 2.3 mph 56 % 0.00 in
09:27 81.4 °F 64.2 °F 29.85 in SSW 3.5 mph 3.5 mph 56 % 0.00 in
09:32 81.8 °F 64.1 °F 29.85 in SE 2.3 mph 2.3 mph 55 % 0.00 in
09:37 82.1 °F 64.3 °F 29.85 in SSW 3.5 mph 3.5 mph 55 % 0.00 in
09:42 82.6 °F 64.3 °F 29.85 in East 1.2 mph 1.2 mph 54 % 0.00 in
09:47 83.1 °F 64.2 °F 29.85 in East 3.5 mph 3.5 mph 53 % 0.00 in
09:52 83.3 °F 64.4 °F 29.85 in South 3.5 mph 3.5 mph 53 % 0.00 in
09:57 83.2 °F 64.3 °F 29.85 in SE 2.3 mph 2.3 mph 53 % 0.00 in
10:02 83.7 °F 65.3 °F 29.85 in East 3.5 mph 3.5 mph 54 % 0.00 in
10:07 83.9 °F 64.9 °F 29.85 in SE 3.5 mph 3.5 mph 53 % 0.00 in
10:12 84.4 °F 65.4 °F 29.85 in South 4.6 mph 4.6 mph 53 % 0.00 in
10:17 84.3 °F 64.2 °F 29.85 in SSW 3.5 mph 3.5 mph 51 % 0.00 in
10:22 84.9 °F 65.9 °F 29.85 in East 2.0 mph 2.0 mph 53 % 0.00 in
10:27 85.4 °F 65.2 °F 29.85 in NE 3.5 mph 3.5 mph 51 % 0.00 in
10:32 85.6 °F 65.4 °F 29.85 in SSE 3.5 mph 3.5 mph 51 % 0.00 in
10:37 85.9 °F 65.7 °F 29.85 in SSE 1.2 mph 1.2 mph 51 % 0.00 in
10:42 86.6 °F 65.2 °F 29.85 in NW 1.2 mph 1.2 mph 49 % 0.00 in
10:47 86.6 °F 65.2 °F 29.85 in WSW 3.5 mph 3.5 mph 49 % 0.00 in
10:52 86.5 °F 64.5 °F 29.85 in SE 2.3 mph 2.3 mph 48 % 0.00 in
10:57 86.8 °F 65.3 °F 29.85 in South 3.5 mph 3.5 mph 49 % 0.00 in
11:02 86.8 °F 64.2 °F 29.85 in NNW 2.3 mph 2.3 mph 47 % 0.00 in
11:07 86.9 °F 64.2 °F 29.85 in SSW 2.3 mph 2.3 mph 47 % 0.00 in
11:12 87.3 °F 64.6 °F 29.85 in NW 3.5 mph 3.5 mph 47 % 0.00 in
11:17 87.1 °F 63.8 °F 29.85 in NNW 3.5 mph 3.5 mph 46 % 0.00 in
11:22 87.2 °F 63.9 °F 29.85 in SSW 2.3 mph   46 % 0.00 in
11:27 87.8 °F 63.8 °F 29.85 in West 3.5 mph 3.5 mph 45 % 0.00 in
11:28 87.8 °F 63.8 °F 29.85 in NW 2.3 mph 2.3 mph 45 % 0.00 in
11:33 88.1 °F 65.9 °F 29.85 in North 2.3 mph 2.3 mph 48 % 0.00 in
11:38 88.8 °F 64.7 °F 29.85 in WSW 1.2 mph 1.2 mph 45 % 0.00 in
11:43 89.1 °F 65.0 °F 29.85 in WNW 2.3 mph 2.3 mph 45 % 0.00 in
11:48 89.1 °F 65.0 °F 29.85 in WNW 2.3 mph 2.3 mph 45 % 0.00 in
11:53 88.6 °F 65.2 °F 29.85 in SE 2.3 mph 2.3 mph 46 % 0.00 in
11:58 89.0 °F 64.9 °F 29.85 in NNW 2.0 mph 2.0 mph 45 % 0.00 in
12:03 89.8 °F 66.9 °F 29.84 in SE 1.2 mph 1.2 mph 47 % 0.00 in
12:08 90.2 °F 66.6 °F 29.84 in SE 1.2 mph 1.2 mph 46 % 0.00 in
12:13 90.7 °F 67.1 °F 29.84 in SSE 3.5 mph   46 % 0.00 in
12:18 90.9 °F 65.3 °F 29.84 in SE 3.5 mph 3.5 mph 43 % 0.00 in
12:23 90.6 °F 63.7 °F 29.84 in NNE 2.3 mph 2.3 mph 41 % 0.00 in
12:28 90.9 °F 66.0 °F 29.84 in South 3.5 mph 3.5 mph 44 % 0.00 in
12:33 91.3 °F 66.3 °F 29.84 in NNW 1.2 mph 1.2 mph 44 % 0.00 in
12:38 91.9 °F 68.2 °F 29.84 in WSW 1.2 mph 1.2 mph 46 % 0.00 in
12:43 92.5 °F 63.9 °F 29.83 in NNW 1.2 mph 1.2 mph 39 % 0.00 in
12:48 92.4 °F 62.4 °F 29.83 in NW 2.3 mph 2.3 mph 37 % 0.00 in
12:53 92.2 °F 62.9 °F 29.83 in NW 2.3 mph 2.3 mph 38 % 0.00 in
12:58 92.0 °F 63.5 °F 29.83 in North 2.3 mph 2.3 mph 39 % 0.00 in
13:03 92.2 °F 63.7 °F 29.83 in WNW 2.3 mph 2.3 mph 39 % 0.00 in
13:08 92.8 °F 63.5 °F 29.83 in WNW 2.3 mph 2.3 mph 38 % 0.00 in
13:13 93.1 °F 63.7 °F 29.83 in WSW 2.3 mph 2.3 mph 38 % 0.00 in
13:18 93.4 °F 62.5 °F 29.83 in NW 2.3 mph 2.3 mph 36 % 0.00 in
13:23 93.7 °F 63.5 °F 29.83 in ESE 1.2 mph 1.2 mph 37 % 0.00 in
13:28 94.2 °F 64.7 °F 29.82 in WNW 2.3 mph 2.3 mph 38 % 0.00 in
13:33 94.4 °F 62.5 °F 29.82 in NNW 2.3 mph 2.3 mph 35 % 0.00 in
13:38 94.8 °F 61.2 °F 29.82 in WNW 1.2 mph 1.2 mph 33 % 0.00 in
13:43 94.8 °F 62.1 °F 29.82 in NW 3.5 mph 3.5 mph 34 % 0.00 in
13:48 95.3 °F 61.6 °F 29.82 in NW 1.2 mph 1.2 mph 33 % 0.00 in
13:53 95.7 °F 64.5 °F 29.82 in NW 2.0 mph 2.0 mph 36 % 0.00 in
13:58 96.3 °F 62.5 °F 29.82 in West 2.3 mph 2.3 mph 33 % 0.00 in
14:03 96.6 °F 62.8 °F 29.82 in NW 3.5 mph 3.5 mph 33 % 0.00 in
14:09 96.2 °F 60.7 °F 29.81 in NW 3.5 mph 3.5 mph 31 % 0.00 in
14:14 96.3 °F 60.7 °F 29.81 in NW 4.0 mph 4.0 mph 31 % 0.00 in
14:19 96.5 °F 61.8 °F 29.81 in NW 2.3 mph 2.3 mph 32 % 0.00 in
14:24 96.9 °F 60.3 °F 29.81 in NE 3.5 mph 3.5 mph 30 % 0.00 in
14:29 96.6 °F 61.0 °F 29.81 in North 3.5 mph 3.5 mph 31 % 0.00 in
14:34 96.4 °F 62.6 °F 29.80 in NW 3.5 mph 3.5 mph 33 % 0.00 in
14:39 96.3 °F 60.7 °F 29.80 in NW 3.0 mph 3.0 mph 31 % 0.00 in
14:44 96.5 °F 60.0 °F 29.80 in WNW 2.3 mph 2.3 mph 30 % 0.00 in
14:49 96.5 °F 60.9 °F 29.80 in NW 3.5 mph 3.5 mph 31 % 0.00 in
14:54 96.4 °F 60.8 °F 29.80 in NNW 3.5 mph 3.5 mph 31 % 0.00 in
14:59 97.0 °F 59.5 °F 29.79 in NW 4.0 mph 4.0 mph 29 % 0.00 in
15:04 97.1 °F 58.6 °F 29.79 in NNE 3.5 mph 3.5 mph 28 % 0.00 in
15:09 97.3 °F 60.7 °F 29.79 in NW 3.5 mph 3.5 mph 30 % 0.00 in
15:14 97.1 °F 58.6 °F 29.79 in NW 3.5 mph 3.5 mph 28 % 0.00 in
15:19 97.2 °F 58.7 °F 29.79 in NW 3.5 mph 3.5 mph 28 % 0.00 in
15:24 97.3 °F 56.7 °F 29.78 in NW 3.5 mph 3.5 mph 26 % 0.00 in
15:29 97.5 °F 55.8 °F 29.78 in NW 4.6 mph 4.6 mph 25 % 0.00 in
15:34 97.5 °F 56.9 °F 29.78 in NW 3.5 mph 3.5 mph 26 % 0.00 in
15:39 97.6 °F 56.9 °F 29.78 in NW 4.6 mph 4.6 mph 26 % 0.00 in
15:44 97.7 °F 57.0 °F 29.78 in NW 2.3 mph 2.3 mph 26 % 0.00 in
15:49 97.9 °F 59.3 °F 29.78 in NW 3.5 mph 3.5 mph 28 % 0.00 in
15:54 97.9 °F 57.2 °F 29.78 in NW 3.5 mph 3.5 mph 26 % 0.00 in
15:59 97.9 °F 58.2 °F 29.78 in WNW 4.6 mph 4.6 mph 27 % 0.00 in
16:04 97.8 °F 60.2 °F 29.78 in NW 3.5 mph 3.5 mph 29 % 0.00 in
16:09 97.9 °F 58.2 °F 29.77 in WNW 3.5 mph 3.5 mph 27 % 0.00 in
16:14 97.8 °F 59.2 °F 29.77 in NW 3.5 mph 3.5 mph 28 % 0.00 in
16:19 98.0 °F 59.3 °F 29.77 in NW 3.5 mph 3.5 mph 28 % 0.00 in
16:25 98.4 °F 58.7 °F 29.77 in WNW 2.3 mph 2.3 mph 27 % 0.00 in
16:30 98.4 °F 59.7 °F 29.77 in NW 5.8 mph 5.8 mph 28 % 0.00 in
16:35 98.3 °F 57.5 °F 29.77 in WNW 5.8 mph 5.8 mph 26 % 0.00 in
16:40 98.2 °F 60.5 °F 29.77 in NW 3.5 mph 3.5 mph 29 % 0.00 in
16:45 97.8 °F 58.2 °F 29.77 in NW 5.0 mph 5.0 mph 27 % 0.00 in
16:50 97.8 °F 58.2 °F 29.77 in West 3.5 mph 3.5 mph 27 % 0.00 in
16:55 98.1 °F 57.4 °F 29.76 in NW 3.5 mph 3.5 mph 26 % 0.00 in
17:00 98.1 °F 56.3 °F 29.76 in WNW 4.6 mph 4.6 mph 25 % 0.00 in
17:05 97.9 °F 58.2 °F 29.76 in NW 3.5 mph 3.5 mph 27 % 0.00 in
17:10 98.2 °F 58.5 °F 29.76 in WNW 3.5 mph 3.5 mph 27 % 0.00 in
17:15 98.3 °F 55.3 °F 29.76 in NW 3.5 mph 3.5 mph 24 % 0.00 in
17:20 98.3 °F 56.4 °F 29.76 in NW 3.5 mph 3.5 mph 25 % 0.00 in
17:25 98.1 °F 57.4 °F 29.76 in NNW 3.5 mph 3.5 mph 26 % 0.00 in
17:30 98.0 °F 53.9 °F 29.76 in WNW 3.5 mph 3.5 mph 23 % 0.00 in
17:35 97.9 °F 55.0 °F 29.75 in NNW 4.0 mph 4.0 mph 24 % 0.00 in
17:40 97.8 °F 54.9 °F 29.75 in NW 4.6 mph 4.6 mph 24 % 0.00 in
17:45 97.6 °F 54.7 °F 29.75 in NW 3.5 mph 3.5 mph 24 % 0.00 in
17:50 97.7 °F 55.9 °F 29.75 in NW 2.3 mph 2.3 mph 25 % 0.00 in
17:55 97.6 °F 54.7 °F 29.75 in WNW 3.5 mph 3.5 mph 24 % 0.00 in
18:00 97.5 °F 54.6 °F 29.75 in WNW 3.5 mph 3.5 mph 24 % 0.00 in
18:05 97.4 °F 55.7 °F 29.75 in WNW 2.3 mph 2.3 mph 25 % 0.00 in
18:10 97.3 °F 54.5 °F 29.75 in NW 3.5 mph 3.5 mph 24 % 0.00 in
18:15 97.3 °F 55.6 °F 29.75 in NW 2.3 mph 2.3 mph 25 % 0.00 in
18:20 97.0 °F 55.3 °F 29.75 in NW 3.5 mph 3.5 mph 25 % 0.00 in
18:25 96.9 °F 55.3 °F 29.75 in WNW 3.5 mph 3.5 mph 25 % 0.00 in
18:30 96.8 °F 55.2 °F 29.75 in NW 2.3 mph 2.3 mph 25 % 0.00 in
18:35 96.7 °F 57.2 °F 29.75 in NW 1.2 mph 1.2 mph 27 % 0.00 in
18:40 96.5 °F 59.0 °F 29.75 in NW 1.2 mph 1.2 mph 29 % 0.00 in
18:45 96.2 °F 58.8 °F 29.75 in NW 1.2 mph 1.2 mph 29 % 0.00 in
18:50 95.5 °F 59.1 °F 29.75 in NW 2.0 mph 2.0 mph 30 % 0.00 in
18:55 94.8 °F 58.5 °F 29.75 in NW 2.0 mph 2.0 mph 30 % 0.00 in
19:00 94.3 °F 59.0 °F 29.75 in WNW 1.2 mph 1.2 mph 31 % 0.00 in
19:05 93.8 °F 59.5 °F 29.75 in NW 1.2 mph 1.2 mph 32 % 0.00 in
19:10 93.4 °F 60.0 °F 29.75 in Calm     33 % 0.00 in
19:15 92.9 °F 60.4 °F 29.75 in Calm     34 % 0.00 in
19:20 92.5 °F 61.7 °F 29.75 in Calm     36 % 0.00 in
19:25 92.0 °F 62.0 °F 29.75 in Calm     37 % 0.00 in
19:30 91.5 °F 62.3 °F 29.75 in Calm     38 % 0.00 in
19:35 91.1 °F 62.0 °F 29.75 in Calm     38 % 0.00 in
19:40 90.6 °F 62.3 °F 29.75 in Calm     39 % 0.00 in
19:45 90.0 °F 62.4 °F 29.76 in Calm     40 % 0.00 in
19:50 89.4 °F 62.6 °F 29.76 in Calm     41 % 0.00 in
19:55 88.8 °F 62.7 °F 29.76 in Calm     42 % 0.00 in
20:01 88.0 °F 64.0 °F 29.76 in Calm     45 % 0.00 in
20:06 87.2 °F 64.5 °F 29.76 in Calm     47 % 0.00 in
20:11 86.5 °F 63.3 °F 29.76 in Calm     46 % 0.00 in
20:16 85.9 °F 63.3 °F 29.76 in Calm     47 % 0.00 in
20:21 85.5 °F 63.6 °F 29.76 in Calm     48 % 0.00 in
20:22 85.4 °F 64.1 °F 29.76 in Calm     49 % 0.00 in
20:23 85.4 °F 64.1 °F 29.76 in Calm     49 % 0.00 in
20:26 85.2 °F 62.7 °F 29.76 in Calm     47 % 0.00 in
20:31 85.2 °F 62.1 °F 29.77 in Calm     46 % 0.00 in
20:36 85.5 °F 61.7 °F 29.77 in Calm     45 % 0.00 in
20:37 85.6 °F 61.8 °F 29.77 in Calm     45 % 0.00 in
20:42 85.9 °F 61.5 °F 29.77 in Calm     44 % 0.00 in
20:47 86.1 °F 61.6 °F 29.77 in WNW 1.2 mph 1.2 mph 44 % 0.00 in
20:52 85.9 °F 62.1 °F 29.77 in Calm     45 % 0.00 in
20:57 85.8 °F 62.0 °F 29.77 in Calm     45 % 0.00 in
21:02 86.0 °F 61.5 °F 29.78 in WNW 1.2 mph 1.2 mph 44 % 0.00 in
21:07 86.1 °F 61.0 °F 29.78 in Calm   0.1 mph 43 % 0.00 in
21:12 86.2 °F 61.1 °F 29.78 in NW 1.2 mph 1.2 mph 43 % 0.00 in
21:17 86.1 °F 61.0 °F 29.78 in Calm     43 % 0.00 in
21:22 85.8 °F 62.0 °F 29.79 in NW 1.2 mph   45 % 0.00 in
21:27 85.7 °F 61.9 °F 29.79 in Calm     45 % 0.00 in
21:32 85.5 °F 62.4 °F 29.79 in Calm     46 % 0.00 in
21:37 84.9 °F 63.0 °F 29.79 in Calm     48 % 0.00 in
21:42 84.3 °F 63.1 °F 29.79 in Calm     49 % 0.00 in
21:47 83.8 °F 63.7 °F 29.79 in Calm     51 % 0.00 in
21:52 83.2 °F 63.7 °F 29.80 in Calm     52 % 0.00 in
21:57 82.8 °F 63.9 °F 29.79 in Calm   0.1 mph 53 % 0.00 in
22:02 83.1 °F 62.5 °F 29.80 in NNW 1.2 mph   50 % 0.00 in
22:07 83.5 °F 63.5 °F 29.80 in Calm     51 % 0.00 in
22:12 83.0 °F 62.4 °F 29.80 in North 1.2 mph 1.2 mph 50 % 0.00 in
22:17 82.9 °F 64.5 °F 29.80 in Calm     54 % 0.00 in
22:23 81.8 °F 64.6 °F 29.80 in Calm     56 % 0.00 in
22:28 80.9 °F 64.2 °F 29.80 in Calm     57 % 0.00 in
22:33 80.5 °F 64.9 °F 29.80 in Calm     59 % 0.00 in
22:38 80.4 °F 64.3 °F 29.80 in Calm     58 % 0.00 in
22:48 80.0 °F 63.9 °F 29.80 in Calm     58 % 0.00 in
22:53 80.0 °F 63.4 °F 29.79 in Calm     57 % 0.00 in
22:58 79.7 °F 64.1 °F 29.80 in Calm     59 % 0.00 in
23:03 79.5 °F 63.9 °F 29.80 in NW 1.2 mph 1.2 mph 59 % 0.00 in
23:08 79.2 °F 64.1 °F 29.80 in Calm     60 % 0.00 in
23:13 79.2 °F 64.1 °F 29.80 in Calm     60 % 0.00 in
23:18 79.3 °F 63.7 °F 29.80 in NW 1.2 mph 1.2 mph 59 % 0.00 in
23:23 79.3 °F 63.7 °F 29.80 in NW 1.2 mph 1.2 mph 59 % 0.00 in
23:28 78.9 °F 64.3 °F 29.80 in Calm     61 % 0.00 in
23:33 78.6 °F 64.0 °F 29.80 in Calm     61 % 0.00 in
23:38 78.5 °F 63.9 °F 29.80 in Calm     61 % 0.00 in
23:43 78.1 °F 64.0 °F 29.80 in Calm     62 % 0.00 in
23:48 78.0 °F 64.4 °F 29.80 in Calm     63 % 0.00 in
23:53 77.8 °F 64.2 °F 29.80 in Calm     63 % 0.00 in
23:58 77.7 °F 63.2 °F 29.80 in Calm     61 % 0.00 in
Park Place, Exeter, Tulare County, California, USA
Compliments of Weather Underground - 2.75 mb